^^
Station Historical Data
Daily Summary for January 25, 2017 Units:  Metric    English   Both
« Previous Day
Next Day »
Daily Weekly Monthly Yearly Custom
  High: Low: Average:
Temperature: -17.8 °C -23.2 °C -20.5 °C
Dew Point: -17.8 °C -23.8 °C -21.2 °C
Humidity: Humidity% 88% 91%
Wind Speed: 0km/h 0km/h 2.1km/h
Wind Gust: 0km/h - -
Wind- - South
Pressure: 0 hPa 34635.4 hPa -
Precipitation: 0 mm    
Historical Graphs
 
 
Tabular Data for January 25, 2017
Time Temperature Dew Point Pressure Wind Wind Speed Wind Gust Humidity Rainfall Rate (Hourly) solar Conditions
-17.8 °C -17.8 °C 0 hPa Calm     Humidity% 0 mm SoftwareType W/m2 Conditions
00:03 -22.7 °C -23.4 °C 34760.7 hPa Calm     91% 0 mm WeatherDisplay:10.37 W/m2 FEW
00:08 -22.8 °C -23.4 °C 34760.7 hPa Calm     91% 0 mm WeatherDisplay:10.37 W/m2 FEW
00:13 -22.8 °C -23.5 °C 34760.7 hPa Calm     91% 0 mm WeatherDisplay:10.37 W/m2 FEW
00:18 -22.9 °C -23.6 °C 34760.7 hPa Calm     91% 0 mm WeatherDisplay:10.37 W/m2 FEW
00:23 -22.9 °C -23.7 °C 34760.7 hPa Calm     91% 0 mm WeatherDisplay:10.37 W/m2 FEW
00:28 -23 °C -23.7 °C 34760.7 hPa Calm     91% 0 mm WeatherDisplay:10.37 W/m2 FEW
00:33 -23.1 °C -23.7 °C 34760.7 hPa Calm     91% 0 mm WeatherDisplay:10.37 W/m2 FEW
00:38 -23.1 °C -23.8 °C 34760.7 hPa Calm     91% 0 mm WeatherDisplay:10.37 W/m2 FEW
00:43 -23.1 °C -23.8 °C 34760.7 hPa Calm     91% 0 mm WeatherDisplay:10.37 W/m2 FEW
00:48 -23.2 °C -23.8 °C 34760.7 hPa Calm     91% 0 mm WeatherDisplay:10.37 W/m2 FEW
00:53 -23.2 °C -23.8 °C 34760.7 hPa Calm     91% 0 mm WeatherDisplay:10.37 W/m2 FEW
00:58 -23.1 °C -23.8 °C 34760.7 hPa Calm     91% 0 mm WeatherDisplay:10.37 W/m2 FEW
01:03 -23.1 °C -23.8 °C 34774.2 hPa Calm     91% 0 mm WeatherDisplay:10.37 W/m2 FEW
01:08 -23.1 °C -23.8 °C 34774.2 hPa Calm     91% 0 mm WeatherDisplay:10.37 W/m2 FEW
01:13 -23.1 °C -23.8 °C 34774.2 hPa Calm     91% 0 mm WeatherDisplay:10.37 W/m2 FEW
01:18 -23.1 °C -23.7 °C 34774.2 hPa Calm     91% 0 mm WeatherDisplay:10.37 W/m2 FEW
01:23 -23 °C -23.7 °C 34774.2 hPa Calm     91% 0 mm WeatherDisplay:10.37 W/m2 FEW
01:28 -23 °C -23.7 °C 34774.2 hPa Calm     91% 0 mm WeatherDisplay:10.37 W/m2 FEW
01:33 -22.9 °C -23.7 °C 34774.2 hPa Calm     91% 0 mm WeatherDisplay:10.37 W/m2 FEW
01:38 -22.9 °C -23.6 °C 34784.4 hPa Calm     92% 0 mm WeatherDisplay:10.37 W/m2 FEW
01:43 -22.9 °C -23.5 °C 34784.4 hPa Calm     92% 0 mm WeatherDisplay:10.37 W/m2 FEW
01:48 -22.9 °C -23.5 °C 34784.4 hPa Calm     92% 0 mm WeatherDisplay:10.37 W/m2 FEW
01:53 -22.9 °C -23.4 °C 34784.4 hPa Calm     92% 0 mm WeatherDisplay:10.37 W/m2 FEW
01:58 -22.7 °C -23.3 °C 34784.4 hPa Calm     92% 0 mm WeatherDisplay:10.37 W/m2 FEW
02:03 -22.7 °C -23.2 °C 34784.4 hPa Calm     92% 0 mm WeatherDisplay:10.37 W/m2 FEW
02:08 -22.6 °C -23.2 °C 34784.4 hPa Calm     92% 0 mm WeatherDisplay:10.37 W/m2 FEW
02:13 -22.6 °C -23.2 °C 34797.9 hPa Calm     92% 0 mm WeatherDisplay:10.37 W/m2 FEW
02:18 -22.6 °C -23.1 °C 34797.9 hPa Calm     92% 0 mm WeatherDisplay:10.37 W/m2 FEW
02:23 -22.5 °C -23.1 °C 34797.9 hPa Calm     92% 0 mm WeatherDisplay:10.37 W/m2 FEW
02:28 -22.4 °C -23 °C 34797.9 hPa Calm     92% 0 mm WeatherDisplay:10.37 W/m2 FEW
02:33 -22.4 °C -22.9 °C 34797.9 hPa Calm     92% 0 mm WeatherDisplay:10.37 W/m2 FEW
02:38 -22.4 °C -22.9 °C 34797.9 hPa Calm     92% 0 mm WeatherDisplay:10.37 W/m2 FEW
02:43 -22.3 °C -22.9 °C 34797.9 hPa Calm     92% 0 mm WeatherDisplay:10.37 W/m2 FEW
02:48 -22.3 °C -22.9 °C 34797.9 hPa Calm     92% 0 mm WeatherDisplay:10.37 W/m2 FEW
02:53 -22.3 °C -22.9 °C 34808.1 hPa Calm     92% 0 mm WeatherDisplay:10.37 W/m2 FEW
02:58 -22.3 °C -22.9 °C 34808.1 hPa Calm     92% 0 mm WeatherDisplay:10.37 W/m2 FEW
03:03 -22.3 °C -22.9 °C 34797.9 hPa Calm     92% 0 mm WeatherDisplay:10.37 W/m2 FEW
03:08 -22.3 °C -22.8 °C 34797.9 hPa Calm     92% 0 mm WeatherDisplay:10.37 W/m2 FEW
03:13 -22.3 °C -22.8 °C 34797.9 hPa Calm     92% 0 mm WeatherDisplay:10.37 W/m2 FEW
03:18 -22.2 °C -22.8 °C 34808.1 hPa Calm     92% 0 mm WeatherDisplay:10.37 W/m2 FEW
03:23 -22.2 °C -22.8 °C 34808.1 hPa Calm     92% 0 mm WeatherDisplay:10.37 W/m2 FEW
03:28 -22.2 °C -22.7 °C 34797.9 hPa Calm     92% 0 mm WeatherDisplay:10.37 W/m2 FEW
03:33 -22.1 °C -22.7 °C 34797.9 hPa Calm     92% 0 mm WeatherDisplay:10.37 W/m2 FEW
03:38 -22.1 °C -22.7 °C 34797.9 hPa Calm     92% 0 mm WeatherDisplay:10.37 W/m2 FEW
03:43 -22.1 °C -22.7 °C 34797.9 hPa Calm     92% 0 mm WeatherDisplay:10.37 W/m2 FEW
03:48 -22.1 °C -22.6 °C 34797.9 hPa Calm     92% 0 mm WeatherDisplay:10.37 W/m2 FEW
03:58 -22 °C -22.6 °C 34797.9 hPa Calm     92% 0 mm WeatherDisplay:10.37 W/m2 FEW
04:03 -22 °C -22.6 °C 34797.9 hPa Calm     92% 0 mm WeatherDisplay:10.37 W/m2 FEW
04:08 -21.9 °C -22.6 °C 34797.9 hPa Calm     92% 0 mm WeatherDisplay:10.37 W/m2 FEW
04:13 -21.9 °C -22.5 °C 34808.1 hPa Calm     92% 0 mm WeatherDisplay:10.37 W/m2 FEW
04:18 -21.9 °C -22.4 °C 34808.1 hPa Calm     92% 0 mm WeatherDisplay:10.37 W/m2 FEW
04:23 -21.8 °C -22.4 °C 34808.1 hPa Calm     92% 0 mm WeatherDisplay:10.37 W/m2 FEW
04:28 -21.8 °C -22.4 °C 34808.1 hPa Calm     92% 0 mm WeatherDisplay:10.37 W/m2 FEW
04:33 -21.8 °C -22.4 °C 34808.1 hPa Calm     92% 0 mm WeatherDisplay:10.37 W/m2 FEW
04:38 -21.8 °C -22.3 °C 34808.1 hPa Calm     92% 0 mm WeatherDisplay:10.37 W/m2 FEW
04:43 -21.8 °C -22.3 °C 34818.2 hPa Calm     92% 0 mm WeatherDisplay:10.37 W/m2 FEW
04:48 -21.7 °C -22.3 °C 34818.2 hPa Calm     92% 0 mm WeatherDisplay:10.37 W/m2 FEW
04:53 -21.7 °C -22.3 °C 34818.2 hPa Calm     92% 0 mm WeatherDisplay:10.37 W/m2 FEW
04:58 -21.7 °C -22.3 °C 34818.2 hPa Calm     92% 0 mm WeatherDisplay:10.37 W/m2 FEW
05:03 -21.7 °C -22.3 °C 34818.2 hPa Calm     92% 0 mm WeatherDisplay:10.37 W/m2 FEW
05:08 -21.6 °C -22.2 °C 34818.2 hPa Calm     92% 0 mm WeatherDisplay:10.37 W/m2 FEW
05:13 -21.6 °C -22.2 °C 34818.2 hPa Calm     92% 0 mm WeatherDisplay:10.37 W/m2 FEW
05:18 -21.6 °C -22.2 °C 34818.2 hPa Calm     92% 0 mm WeatherDisplay:10.37 W/m2 FEW
05:23 -21.6 °C -22.2 °C 34818.2 hPa Calm     92% 0 mm WeatherDisplay:10.37 W/m2 FEW
05:28 -21.6 °C -22.2 °C 34818.2 hPa Calm     92% 0 mm WeatherDisplay:10.37 W/m2 FEW
05:33 -21.7 °C -22.3 °C 34818.2 hPa Calm     92% 0 mm WeatherDisplay:10.37 W/m2 FEW
05:38 -21.7 °C -22.3 °C 34818.2 hPa Calm   6 km/h 92% 0 mm WeatherDisplay:10.37 W/m2 FEW
05:43 -21.7 °C -22.3 °C 34818.2 hPa Calm     92% 0 mm WeatherDisplay:10.37 W/m2 FEW
05:48 -21.7 °C -22.3 °C 34818.2 hPa ENE 5.6 km/h 9 km/h 92% 0 mm WeatherDisplay:10.37 W/m2 FEW
05:53 -21.7 °C -22.3 °C 34818.2 hPa Calm     92% 0 mm WeatherDisplay:10.37 W/m2 FEW
05:58 -21.7 °C -22.3 °C 34818.2 hPa Calm     92% 0 mm WeatherDisplay:10.37 W/m2 FEW
06:03 -21.7 °C -22.3 °C 34818.2 hPa Calm     92% 0 mm WeatherDisplay:10.37 W/m2 FEW
06:08 -21.6 °C -22.2 °C 34818.2 hPa Calm     92% 0 mm WeatherDisplay:10.37 W/m2 FEW
06:13 -21.6 °C -22.2 °C 34831.8 hPa Calm     92% 0 mm WeatherDisplay:10.37 W/m2 FEW
06:18 -21.6 °C -22.2 °C 34818.2 hPa Calm     92% 0 mm WeatherDisplay:10.37 W/m2 FEW
06:23 -21.6 °C -22.2 °C 34831.8 hPa Calm     92% 0 mm WeatherDisplay:10.37 W/m2 FEW
06:28 -21.6 °C -22.2 °C 34831.8 hPa Calm     92% 0 mm WeatherDisplay:10.37 W/m2 FEW
06:33 -21.6 °C -22.1 °C 34818.2 hPa Calm     92% 0 mm WeatherDisplay:10.37 W/m2 FEW
06:38 -21.6 °C -22.1 °C 34818.2 hPa ENE 1 km/h 6 km/h 92% 0 mm WeatherDisplay:10.37 W/m2 FEW
06:44 -21.6 °C -22.1 °C 34831.8 hPa Calm     92% 0 mm WeatherDisplay:10.37 W/m2 FEW
06:49 -21.5 °C -22.1 °C 34831.8 hPa Calm     92% 0 mm WeatherDisplay:10.37 W/m2 FEW
06:54 -21.5 °C -22.1 °C 34831.8 hPa Calm     92% 0 mm WeatherDisplay:10.37 W/m2 FEW
06:59 -21.5 °C -22.1 °C 34831.8 hPa Calm     92% 0 mm WeatherDisplay:10.37 W/m2 FEW
07:04 -21.5 °C -22.1 °C 34841.9 hPa Calm     92% 0 mm WeatherDisplay:10.37 W/m2 FEW
07:09 -21.5 °C -22.1 °C 34841.9 hPa Calm     92% 0 mm WeatherDisplay:10.37 W/m2 FEW
07:14 -21.4 °C -22.1 °C 34841.9 hPa Calm     92% 0 mm WeatherDisplay:10.37 W/m2 FEW
07:19 -21.4 °C -22.1 °C 34841.9 hPa Calm     92% 0 mm WeatherDisplay:10.37 W/m2 FEW
07:24 -21.4 °C -22.1 °C 34841.9 hPa Calm     92% 0 mm WeatherDisplay:10.37 W/m2 FEW
07:29 -21.4 °C -22.1 °C 34841.9 hPa Calm     92% 0 mm WeatherDisplay:10.37 W/m2 FEW
07:34 -21.4 °C -22 °C 34841.9 hPa Calm     92% 0 mm WeatherDisplay:10.37 W/m2 FEW
07:39 -21.4 °C -22 °C 34841.9 hPa Calm     92% 0 mm WeatherDisplay:10.37 W/m2 FEW
07:44 -21.3 °C -22 °C 34841.9 hPa Calm     92% 0 mm WeatherDisplay:10.37 W/m2 FEW
07:49 -21.4 °C -22 °C 34841.9 hPa Calm     92% 0 mm WeatherDisplay:10.37 W/m2 FEW
07:54 -21.3 °C -22 °C 34841.9 hPa Calm     92% 0 mm WeatherDisplay:10.37 W/m2 FEW
07:59 -21.3 °C -21.9 °C 34841.9 hPa Calm     92% 0 mm WeatherDisplay:10.37 W/m2 FEW
08:04 -21.3 °C -21.9 °C 34841.9 hPa Calm     92% 0 mm WeatherDisplay:10.37 W/m2 FEW
08:09 -21.3 °C -21.9 °C 34841.9 hPa Calm     92% 0 mm WeatherDisplay:10.37 W/m2 FEW
08:14 -21.3 °C -21.9 °C 34841.9 hPa Calm     92% 0 mm WeatherDisplay:10.37 W/m2 FEW
08:19 -21.3 °C -21.9 °C 34852.1 hPa Calm     92% 0 mm WeatherDisplay:10.37 W/m2 FEW
08:24 -21.3 °C -21.9 °C 34841.9 hPa Calm     92% 0 mm WeatherDisplay:10.37 W/m2 FEW
08:29 -21.2 °C -21.8 °C 34841.9 hPa Calm     92% 0 mm WeatherDisplay:10.37 W/m2 FEW
08:34 -21.2 °C -21.8 °C 34841.9 hPa Calm     92% 0 mm WeatherDisplay:10.37 W/m2 FEW
08:39 -21.2 °C -21.8 °C 34841.9 hPa Calm     92% 0 mm WeatherDisplay:10.37 W/m2 FEW
08:44 -21.2 °C -21.8 °C 34841.9 hPa Calm     92% 0 mm WeatherDisplay:10.37 W/m2 FEW
08:49 -21.2 °C -21.8 °C 34841.9 hPa Calm     92% 0 mm WeatherDisplay:10.37 W/m2 FEW
08:54 -21.2 °C -21.8 °C 34841.9 hPa Calm     92% 0 mm WeatherDisplay:10.37 W/m2 FEW
08:59 -21.2 °C -21.8 °C 34841.9 hPa Calm     92% 0 mm WeatherDisplay:10.37 W/m2 FEW
09:03 -21.2 °C -21.8 °C 34841.9 hPa Calm     92% 0 mm WeatherDisplay:10.37 W/m2 FEW
09:09 -21.1 °C -21.7 °C 34852.1 hPa Calm     92% 0 mm WeatherDisplay:10.37 W/m2 FEW
09:14 -21.1 °C -21.7 °C 34852.1 hPa Calm     92% 0 mm WeatherDisplay:10.37 W/m2 FEW
09:19 -21 °C -21.6 °C 34852.1 hPa Calm     93% 0 mm WeatherDisplay:10.37 W/m2 FEW
09:23 -21 °C -21.5 °C 34852.1 hPa Calm     93% 0 mm WeatherDisplay:10.37 W/m2 FEW
09:29 -20.9 °C -21.5 °C 34852.1 hPa Calm     93% 0 mm WeatherDisplay:10.37 W/m2 FEW
09:33 -20.9 °C -21.6 °C 34865.6 hPa Calm     92% 0 mm WeatherDisplay:10.37 W/m2 FEW
09:38 -20.9 °C -21.5 °C 34865.6 hPa Calm     92% 0 mm WeatherDisplay:10.37 W/m2 FEW
09:43 -20.8 °C -21.3 °C 34865.6 hPa Calm     93% 0 mm WeatherDisplay:10.37 W/m2 FEW
09:48 -20.7 °C -21.3 °C 34865.6 hPa ENE 1 km/h 6 km/h 93% 0 mm WeatherDisplay:10.37 W/m2 FEW
09:53 -20.7 °C -21.2 °C 34865.6 hPa Calm     93% 0 mm WeatherDisplay:10.37 W/m2 FEW
09:58 -20.6 °C -21.2 °C 34865.6 hPa Calm     93% 0 mm WeatherDisplay:10.37 W/m2 FEW
10:03 -20.6 °C -21.1 °C 34865.6 hPa Calm     93% 0 mm WeatherDisplay:10.37 W/m2 FEW
10:08 -20.5 °C -21 °C 34865.6 hPa South 1.3 km/h 6 km/h 93% 0 mm WeatherDisplay:10.37 W/m2 FEW
10:13 -20.4 °C -20.9 °C 34875.8 hPa Calm     93% 0 mm WeatherDisplay:10.37 W/m2 FEW
10:18 -20.4 °C -20.9 °C 34875.8 hPa Calm     93% 0 mm WeatherDisplay:10.37 W/m2 FEW
10:23 -20.3 °C -20.8 °C 34875.8 hPa SSW 6.9 km/h 15 km/h 93% 0 mm WeatherDisplay:10.37 W/m2 FEW
10:28 -20.3 °C -20.8 °C 34875.8 hPa South 3.9 km/h 9 km/h 93% 0 mm WeatherDisplay:10.37 W/m2 FEW
10:33 -20.2 °C -20.8 °C 34875.8 hPa South 2.3 km/h 9 km/h 92% 0 mm WeatherDisplay:10.37 W/m2 FEW
10:38 -20.2 °C -20.8 °C 34875.8 hPa SSE 5 km/h 15 km/h 92% 0 mm WeatherDisplay:10.37 W/m2 FEW
10:43 -20.2 °C -20.8 °C 34865.6 hPa South 4.7 km/h 11.9 km/h 92% 0 mm WeatherDisplay:10.37 W/m2 FEW
10:48 -20.2 °C -20.8 °C 34865.6 hPa SSE 5.6 km/h 11.9 km/h 92% 0 mm WeatherDisplay:10.37 W/m2 FEW
10:53 -20.2 °C -20.8 °C 34875.8 hPa SE 7.2 km/h 15 km/h 92% 0 mm WeatherDisplay:10.37 W/m2 FEW
10:58 -20.2 °C -20.8 °C 34875.8 hPa SSE 3.7 km/h 9 km/h 92% 0 mm WeatherDisplay:10.37 W/m2 FEW
11:03 -20.1 °C -20.7 °C 34875.8 hPa SSE 3.9 km/h 11.9 km/h 92% 0 mm WeatherDisplay:10.37 W/m2 FEW
11:08 -20.1 °C -20.7 °C 34875.8 hPa Calm     92% 0 mm WeatherDisplay:10.37 W/m2 FEW
11:13 -20.1 °C -20.7 °C 34875.8 hPa Calm     92% 0 mm WeatherDisplay:10.37 W/m2 FEW
11:18 -20.1 °C -20.7 °C 34875.8 hPa SE 2.3 km/h 9 km/h 92% 0 mm WeatherDisplay:10.37 W/m2 FEW
11:23 -20.1 °C -20.8 °C 34875.8 hPa SSE 3.1 km/h 10.3 km/h 91% 0 mm WeatherDisplay:10.37 W/m2 FEW
11:28 -20.1 °C -20.8 °C 34889.3 hPa SE 1.8 km/h 6 km/h 91% 0 mm WeatherDisplay:10.37 W/m2 FEW
11:33 -20.1 °C -20.7 °C 34889.3 hPa South 8.5 km/h 17.9 km/h 91% 0 mm WeatherDisplay:10.37 W/m2 FEW
11:39 -19.9 °C -20.7 °C 34889.3 hPa South 3.9 km/h 9 km/h 91% 0 mm WeatherDisplay:10.37 W/m2 FEW
11:44 -19.9 °C -20.6 °C 34889.3 hPa Calm     91% 0 mm WeatherDisplay:10.37 W/m2 FEW
11:49 -19.9 °C -20.6 °C 34889.3 hPa SE 4.2 km/h 12.9 km/h 91% 0 mm WeatherDisplay:10.37 W/m2 FEW
11:54 -19.8 °C -20.6 °C 34889.3 hPa SSW 9.8 km/h 17.9 km/h 91% 0 mm WeatherDisplay:10.37 W/m2 FEW
11:59 -19.8 °C -20.6 °C 34889.3 hPa SSW 1.6 km/h 9 km/h 90% 0 mm WeatherDisplay:10.37 W/m2 FEW
12:04 -19.8 °C -20.6 °C 34875.8 hPa SSE 6.3 km/h 11.9 km/h 90% 0 mm WeatherDisplay:10.37 W/m2 FEW
12:09 -19.8 °C -20.6 °C 34875.8 hPa Calm     90% 0 mm WeatherDisplay:10.37 W/m2 FEW
12:14 -19.8 °C -20.6 °C 34865.6 hPa South 3.1 km/h 17.9 km/h 90% 0 mm WeatherDisplay:10.37 W/m2 FEW
12:19 -19.8 °C -20.7 °C 34865.6 hPa SSE 6.9 km/h 11.9 km/h 89% 0 mm WeatherDisplay:10.37 W/m2 FEW
12:24 -19.8 °C -20.7 °C 34865.6 hPa Calm   11.9 km/h 89% 0 mm WeatherDisplay:10.37 W/m2 FEW
12:29 -19.8 °C -20.6 °C 34865.6 hPa SSE 6.9 km/h 15 km/h 89% 0 mm WeatherDisplay:10.37 W/m2 FEW
12:34 -19.7 °C -20.6 °C 34852.1 hPa SSE 2.6 km/h 17.9 km/h 89% 0 mm WeatherDisplay:10.37 W/m2 FEW
12:39 -19.7 °C -20.6 °C 34852.1 hPa SSE 8.9 km/h 9 km/h 89% 0 mm WeatherDisplay:10.37 W/m2 FEW
12:44 -19.7 °C -20.7 °C 34852.1 hPa Calm     88% 0 mm WeatherDisplay:10.37 W/m2 FEW
12:49 -19.7 °C -20.5 °C 34852.1 hPa SSW 3.7 km/h 5.1 km/h 89% 0 mm WeatherDisplay:10.37 W/m2 FEW
12:54 -19.6 °C -20.5 °C 34852.1 hPa SE 1.3 km/h 6 km/h 89% 0 mm WeatherDisplay:10.37 W/m2 FEW
12:59 -19.6 °C -20.6 °C 34852.1 hPa Calm     88% 0 mm WeatherDisplay:10.37 W/m2 FEW
13:04 -19.6 °C -20.6 °C 34852.1 hPa Calm     88% 0 mm WeatherDisplay:10.37 W/m2 FEW
13:09 -19.6 °C -20.6 °C 34852.1 hPa South 0.8 km/h 3.1 km/h 88% 0 mm WeatherDisplay:10.37 W/m2 FEW
13:14 -19.6 °C -20.5 °C 34852.1 hPa South 6.4 km/h 7.7 km/h 88% 0 mm WeatherDisplay:10.37 W/m2 FEW
13:19 -19.6 °C -20.5 °C 34841.9 hPa South 13.5 km/h 23.8 km/h 88% 0 mm WeatherDisplay:10.37 W/m2 FEW
13:24 -19.6 °C -20.5 °C 34841.9 hPa SW 1 km/h 15 km/h 88% 0 mm WeatherDisplay:10.37 W/m2 FEW
13:29 -19.6 °C -20.5 °C 34852.1 hPa Calm   6 km/h 88% 0 mm WeatherDisplay:10.37 W/m2 FEW
13:34 -19.6 °C -20.5 °C 34852.1 hPa SSE 0.8 km/h   88% 0 mm WeatherDisplay:10.37 W/m2 FEW
13:39 -19.6 °C -20.6 °C 34852.1 hPa Calm   6 km/h 88% 0 mm WeatherDisplay:10.37 W/m2 FEW
13:44 -19.6 °C -20.6 °C 34852.1 hPa SSE 2.6 km/h 6 km/h 88% 0 mm WeatherDisplay:10.37 W/m2 FEW
13:49 -19.6 °C -20.6 °C 34852.1 hPa SSE 1.3 km/h 5.1 km/h 88% 0 mm WeatherDisplay:10.37 W/m2 FEW
13:54 -19.6 °C -20.5 °C 34841.9 hPa SW 1.6 km/h   88% 0 mm WeatherDisplay:10.37 W/m2 FEW
13:59 -19.6 °C -20.5 °C 34841.9 hPa SSE 2.9 km/h 9 km/h 88% 0 mm WeatherDisplay:10.37 W/m2 FEW
14:04 -19.6 °C -20.5 °C 34841.9 hPa Calm     88% 0 mm WeatherDisplay:10.37 W/m2 FEW
14:09 -19.6 °C -20.5 °C 34841.9 hPa SSW 1 km/h   88% 0 mm WeatherDisplay:10.37 W/m2 FEW
14:14 -19.6 °C -20.5 °C 34841.9 hPa South 2.6 km/h 9 km/h 88% 0 mm WeatherDisplay:10.37 W/m2 FEW
14:19 -19.6 °C -20.5 °C 34841.9 hPa Calm     88% 0 mm WeatherDisplay:10.37 W/m2 FEW
14:24 -19.6 °C -20.4 °C 34841.9 hPa Calm     89% 0 mm WeatherDisplay:10.37 W/m2 FEW
14:29 -19.5 °C -20.4 °C 34841.9 hPa SSW 0.8 km/h 6 km/h 89% 0 mm WeatherDisplay:10.37 W/m2 FEW
14:34 -19.5 °C -20.4 °C 34831.8 hPa SE 6.9 km/h 10.3 km/h 89% 0 mm WeatherDisplay:10.37 W/m2 FEW
14:39 -19.5 °C -20.4 °C 34818.2 hPa Calm   6 km/h 89% 0 mm WeatherDisplay:10.37 W/m2 FEW
14:44 -19.5 °C -20.4 °C 34831.8 hPa SE 2.1 km/h 9 km/h 89% 0 mm WeatherDisplay:10.37 W/m2 FEW
14:49 -19.5 °C -20.4 °C 34818.2 hPa SE 1.3 km/h 11.9 km/h 89% 0 mm WeatherDisplay:10.37 W/m2 FEW
14:54 -19.6 °C -20.5 °C 34818.2 hPa SSE 1.6 km/h 9 km/h 88% 0 mm WeatherDisplay:10.37 W/m2 FEW
14:59 -19.6 °C -20.5 °C 34818.2 hPa ESE 5.6 km/h 15 km/h 88% 0 mm WeatherDisplay:10.37 W/m2 FEW
15:04 -19.6 °C -20.5 °C 34818.2 hPa Calm   6 km/h 88% 0 mm WeatherDisplay:10.37 W/m2 FEW
15:09 -19.6 °C -20.6 °C 34818.2 hPa South 1 km/h 6 km/h 88% 0 mm WeatherDisplay:10.37 W/m2 FEW
15:14 -19.6 °C -20.6 °C 34818.2 hPa SE 4.2 km/h 9 km/h 88% 0 mm WeatherDisplay:10.37 W/m2 FEW
15:19 -19.6 °C -20.6 °C 34818.2 hPa SSE 2.1 km/h 6 km/h 88% 0 mm WeatherDisplay:10.37 W/m2 FEW
15:24 -19.7 °C -20.6 °C 34818.2 hPa Calm     88% 0 mm WeatherDisplay:10.37 W/m2 FEW
15:29 -19.7 °C -20.6 °C 34818.2 hPa South 1.6 km/h   88% 0 mm WeatherDisplay:10.37 W/m2 FEW
15:34 -19.7 °C -20.7 °C 34808.1 hPa South 2.1 km/h 11.9 km/h 88% 0 mm WeatherDisplay:10.37 W/m2 FEW
15:39 -19.7 °C -20.6 °C 34808.1 hPa Calm     89% 0 mm WeatherDisplay:10.37 W/m2 FEW
15:44 -19.8 °C -20.6 °C 34808.1 hPa South 1.3 km/h 6 km/h 89% 0 mm WeatherDisplay:10.37 W/m2 FEW
15:49 -19.8 °C -20.7 °C 34808.1 hPa South 6.3 km/h 11.9 km/h 89% 0 mm WeatherDisplay:10.37 W/m2 FEW
15:54 -19.8 °C -20.7 °C 34808.1 hPa SE 4.3 km/h 11.9 km/h 89% 0 mm WeatherDisplay:10.37 W/m2 FEW
15:59 -19.8 °C -20.7 °C 34808.1 hPa South 1.6 km/h 7.7 km/h 89% 0 mm WeatherDisplay:10.37 W/m2 FEW
16:04 -19.8 °C -20.7 °C 34808.1 hPa SSE 2.6 km/h 7.7 km/h 89% 0 mm WeatherDisplay:10.37 W/m2 FEW
16:09 -19.9 °C -20.7 °C 34808.1 hPa South 1.6 km/h 5.1 km/h 89% 0 mm WeatherDisplay:10.37 W/m2 FEW
16:14 -19.9 °C -20.7 °C 34808.1 hPa SSE 1.3 km/h 3.1 km/h 89% 0 mm WeatherDisplay:10.37 W/m2 FEW
16:19 -19.9 °C -20.8 °C 34808.1 hPa Calm     89% 0 mm WeatherDisplay:10.37 W/m2 FEW
16:24 -19.9 °C -20.8 °C 34808.1 hPa Calm     89% 0 mm WeatherDisplay:10.37 W/m2 FEW
16:29 -19.9 °C -20.8 °C 34797.9 hPa Calm     89% 0 mm WeatherDisplay:10.37 W/m2 FEW
16:34 -19.9 °C -20.7 °C 34797.9 hPa Calm   3.1 km/h 90% 0 mm WeatherDisplay:10.37 W/m2 FEW
16:39 -19.9 °C -20.7 °C 34797.9 hPa South 2.1 km/h 7.7 km/h 90% 0 mm WeatherDisplay:10.37 W/m2 FEW
16:44 -20 °C -20.8 °C 34797.9 hPa Calm     90% 0 mm WeatherDisplay:10.37 W/m2 FEW
16:49 -20.1 °C -20.8 °C 34797.9 hPa Calm   6 km/h 90% 0 mm WeatherDisplay:10.37 W/m2 FEW
16:54 -20.1 °C -20.8 °C 34797.9 hPa Calm   9 km/h 90% 0 mm WeatherDisplay:10.37 W/m2 FEW
16:59 -20 °C -20.8 °C 34797.9 hPa Calm     90% 0 mm WeatherDisplay:10.37 W/m2 FEW
17:04 -19.9 °C -20.7 °C 34797.9 hPa Calm     90% 0 mm WeatherDisplay:10.37 W/m2 FEW
17:09 -19.9 °C -20.7 °C 34797.9 hPa SW 1 km/h 6 km/h 90% 0 mm WeatherDisplay:10.37 W/m2 FEW
17:14 -19.9 °C -20.7 °C 34797.9 hPa Calm     90% 0 mm WeatherDisplay:10.37 W/m2 FEW
17:19 -19.9 °C -20.7 °C 34797.9 hPa Calm     90% 0 mm WeatherDisplay:10.37 W/m2 FEW
17:24 -19.8 °C -20.6 °C 34797.9 hPa South 2.3 km/h 2.6 km/h 90% 0 mm WeatherDisplay:10.37 W/m2 FEW
17:29 -19.8 °C -20.6 °C 34797.9 hPa Calm   2.6 km/h 90% 0 mm WeatherDisplay:10.37 W/m2 FEW
17:34 -19.8 °C -20.6 °C 34797.9 hPa Calm     90% 0 mm WeatherDisplay:10.37 W/m2 FEW
17:39 -19.8 °C -20.6 °C 34784.4 hPa South 4.3 km/h 9 km/h 90% 0 mm WeatherDisplay:10.37 W/m2 FEW
17:44 -19.8 °C -20.6 °C 34797.9 hPa Calm     90% 0 mm WeatherDisplay:10.37 W/m2 FEW
17:49 -19.8 °C -20.6 °C 34784.4 hPa SSW 0.8 km/h 6 km/h 90% 0 mm WeatherDisplay:10.37 W/m2 FEW
17:54 -19.8 °C -20.6 °C 34797.9 hPa South 3.1 km/h 9 km/h 90% 0 mm WeatherDisplay:10.37 W/m2 FEW
17:59 -19.8 °C -20.6 °C 34784.4 hPa Calm   9 km/h 90% 0 mm WeatherDisplay:10.37 W/m2 FEW
18:04 -19.8 °C -20.6 °C 34784.4 hPa SSE 1 km/h 10.3 km/h 90% 0 mm WeatherDisplay:10.37 W/m2 FEW
18:09 -19.8 °C -20.6 °C 34784.4 hPa NW 4.7 km/h 9 km/h 90% 0 mm WeatherDisplay:10.37 W/m2 FEW
18:14 -19.8 °C -20.5 °C 34797.9 hPa SSW 0.8 km/h 9 km/h 90% 0 mm WeatherDisplay:10.37 W/m2 FEW
18:19 -19.7 °C -20.5 °C 34784.4 hPa South 3.9 km/h 9 km/h 90% 0 mm WeatherDisplay:10.37 W/m2 FEW
18:24 -19.7 °C -20.4 °C 34784.4 hPa SSW 2.9 km/h 11.9 km/h 90% 0 mm WeatherDisplay:10.37 W/m2 FEW
18:29 -19.6 °C -20.4 °C 34784.4 hPa South 2.1 km/h   90% 0 mm WeatherDisplay:10.37 W/m2 FEW
18:34 -19.6 °C -20.4 °C 34797.9 hPa West 3.9 km/h 9 km/h 90% 0 mm WeatherDisplay:10.37 W/m2 FEW
18:39 -19.6 °C -20.3 °C 34784.4 hPa South 1.6 km/h 6 km/h 90% 0 mm WeatherDisplay:10.37 W/m2 FEW
18:44 -19.6 °C -20.3 °C 34784.4 hPa Calm   2.6 km/h 90% 0 mm WeatherDisplay:10.37 W/m2 FEW
18:49 -19.6 °C -20.3 °C 34774.2 hPa SSW 1.6 km/h 7.7 km/h 90% 0 mm WeatherDisplay:10.37 W/m2 FEW
18:54 -19.6 °C -20.3 °C 34774.2 hPa Calm   9 km/h 90% 0 mm WeatherDisplay:10.37 W/m2 FEW
18:59 -19.6 °C -20.3 °C 34760.7 hPa WSW 0.3 km/h 9 km/h 90% 0 mm WeatherDisplay:10.37 W/m2 FEW
19:04 -19.6 °C -20.2 °C 34760.7 hPa Calm     91% 0 mm WeatherDisplay:10.37 W/m2 FEW
19:09 -19.5 °C -20.2 °C 34760.7 hPa WSW 8.5 km/h 15 km/h 91% 0 mm WeatherDisplay:10.37 W/m2 FEW
19:14 -19.5 °C -20.2 °C 34750.5 hPa SSW 9.3 km/h 11.9 km/h 91% 0 mm WeatherDisplay:10.37 W/m2 FEW
19:19 -19.4 °C -20.2 °C 34750.5 hPa SSW 7.6 km/h 17.9 km/h 91% 0 mm WeatherDisplay:10.37 W/m2 FEW
19:24 -19.4 °C -20.1 °C 34750.5 hPa SSE 1 km/h 15.6 km/h 91% 0 mm WeatherDisplay:10.37 W/m2 FEW
19:29 -19.4 °C -20.1 °C 34750.5 hPa Calm     91% 0 mm WeatherDisplay:10.37 W/m2 FEW
19:34 -19.4 °C -20.1 °C 34750.5 hPa SSW 3.9 km/h 7.7 km/h 91% 0 mm WeatherDisplay:10.37 W/m2 FEW
19:39 -19.3 °C -20.1 °C 34750.5 hPa South 6 km/h 15.6 km/h 91% 0 mm WeatherDisplay:10.37 W/m2 FEW
19:44 -19.3 °C -20.1 °C 34750.5 hPa SW 1.3 km/h 9 km/h 91% 0 mm WeatherDisplay:10.37 W/m2 FEW
19:49 -19.3 °C -20.1 °C 34750.5 hPa SE 6 km/h 15 km/h 91% 0 mm WeatherDisplay:10.37 W/m2 FEW
19:54 -19.3 °C -20 °C 34750.5 hPa South 8.5 km/h 29.8 km/h 91% 0 mm WeatherDisplay:10.37 W/m2 FEW
19:59 -19.3 °C -20 °C 34750.5 hPa SSW 9.7 km/h 18.2 km/h 91% 0 mm WeatherDisplay:10.37 W/m2 FEW
20:04 -19.3 °C -19.9 °C 34740.4 hPa ESE 7.2 km/h 15 km/h 91% 0 mm WeatherDisplay:10.37 W/m2 FEW
20:09 -19.3 °C -19.9 °C 34740.4 hPa ESE 6 km/h 11.9 km/h 91% 0 mm WeatherDisplay:10.37 W/m2 FEW
20:14 -19.2 °C -19.9 °C 34740.4 hPa WNW 10.1 km/h 20.9 km/h 91% 0 mm WeatherDisplay:10.37 W/m2 FEW
20:19 -19.2 °C -19.9 °C 34726.8 hPa Calm     91% 0 mm WeatherDisplay:10.37 W/m2 FEW
20:24 -19.2 °C -19.9 °C 34726.8 hPa South 2.9 km/h 3.1 km/h 90% 0 mm WeatherDisplay:10.37 W/m2 FEW
20:29 -19.2 °C -19.9 °C 34740.4 hPa South 10.1 km/h 23.8 km/h 90% 0 mm WeatherDisplay:10.37 W/m2 FEW
20:34 -19.2 °C -19.9 °C 34740.4 hPa South 6.3 km/h 23.8 km/h 90% 0 mm WeatherDisplay:10.37 W/m2 FEW
20:39 -19.1 °C -19.9 °C 34726.8 hPa SSE 10.9 km/h 17.9 km/h 90% 0 mm WeatherDisplay:10.37 W/m2 FEW
20:44 -19.1 °C -19.9 °C 34726.8 hPa WNW 2.6 km/h 11.9 km/h 90% 0 mm WeatherDisplay:10.37 W/m2 FEW
20:49 -19.1 °C -19.9 °C 34726.8 hPa SSW 5.5 km/h 20.9 km/h 90% 0 mm WeatherDisplay:10.37 W/m2 FEW
20:54 -19.1 °C -19.9 °C 34726.8 hPa SSE 7.2 km/h 15 km/h 90% 0 mm WeatherDisplay:10.37 W/m2 FEW
20:59 -19.1 °C -19.8 °C 34726.8 hPa SE 9.7 km/h 26.9 km/h 90% 0 mm WeatherDisplay:10.37 W/m2 FEW
21:04 -19 °C -19.8 °C 34726.8 hPa ENE 3.9 km/h 9 km/h 90% 0 mm WeatherDisplay:10.37 W/m2 FEW
21:09 -19 °C -19.8 °C 34716.7 hPa SSE 0.3 km/h 15 km/h 90% 0 mm WeatherDisplay:10.37 W/m2 FEW
21:14 -19 °C -19.8 °C 34716.7 hPa ENE 0.3 km/h 6 km/h 90% 0 mm WeatherDisplay:10.37 W/m2 FEW
21:19 -19 °C -19.8 °C 34716.7 hPa SE 10.3 km/h 23.8 km/h 90% 0 mm WeatherDisplay:10.37 W/m2 FEW
21:24 -18.9 °C -19.7 °C 34716.7 hPa SSE 12.4 km/h 26.9 km/h 91% 0 mm WeatherDisplay:10.37 W/m2 FEW
21:29 -18.9 °C -19.6 °C 34703.1 hPa SE 4.2 km/h 9 km/h 91% 0 mm WeatherDisplay:10.37 W/m2 FEW
21:34 -18.9 °C -19.6 °C 34703.1 hPa WNW 0.3 km/h 9 km/h 91% 0 mm WeatherDisplay:10.37 W/m2 FEW
21:39 -18.9 °C -19.6 °C 34703.1 hPa SW 10.1 km/h 15 km/h 91% 0 mm WeatherDisplay:10.37 W/m2 FEW
21:44 -18.9 °C -19.6 °C 34693 hPa South 6.4 km/h 23.8 km/h 91% 0 mm WeatherDisplay:10.37 W/m2 FEW
21:49 -18.8 °C -19.6 °C 34703.1 hPa NNE 4.3 km/h 17.9 km/h 91% 0 mm WeatherDisplay:10.37 W/m2 FEW
21:54 -18.8 °C -19.6 °C 34703.1 hPa SSE 9.3 km/h 15 km/h 91% 0 mm WeatherDisplay:10.37 W/m2 FEW
21:59 -18.8 °C -19.6 °C 34693 hPa SE 6.8 km/h 7.7 km/h 91% 0 mm WeatherDisplay:10.37 W/m2 FEW
22:04 -18.8 °C -19.6 °C 34693 hPa WSW 6.9 km/h 20.9 km/h 91% 0 mm WeatherDisplay:10.37 W/m2 FEW
22:09 -18.8 °C -19.4 °C 34693 hPa SSE 3.7 km/h 11.9 km/h 92% 0 mm WeatherDisplay:10.37 W/m2 FEW
22:14 -18.8 °C -19.4 °C 34693 hPa SSW 9.3 km/h 41.7 km/h 92% 0 mm WeatherDisplay:10.37 W/m2 FEW
22:19 -18.8 °C -19.4 °C 34693 hPa SSE 3.7 km/h 15 km/h 92% 0 mm WeatherDisplay:10.37 W/m2 FEW
22:24 -18.7 °C -19.3 °C 34682.8 hPa SSW 3.7 km/h 20.9 km/h 92% 0 mm WeatherDisplay:10.37 W/m2 FEW
22:29 -18.7 °C -19.3 °C 34682.8 hPa WSW 10.9 km/h 29.8 km/h 92% 0 mm WeatherDisplay:10.37 W/m2 FEW
22:34 -18.7 °C -19.3 °C 34682.8 hPa South 5 km/h 11.9 km/h 92% 0 mm WeatherDisplay:10.37 W/m2 FEW
22:39 -18.7 °C -19.3 °C 34682.8 hPa SSW 6.3 km/h 23.8 km/h 92% 0 mm WeatherDisplay:10.37 W/m2 FEW
22:44 -18.6 °C -19.2 °C 34682.8 hPa South 4.2 km/h 6 km/h 92% 0 mm WeatherDisplay:10.37 W/m2 FEW
22:49 -18.6 °C -19.2 °C 34682.8 hPa South 2.6 km/h 20.9 km/h 92% 0 mm WeatherDisplay:10.37 W/m2 FEW
22:54 -18.6 °C -19.2 °C 34682.8 hPa SSW 8.9 km/h 26.9 km/h 92% 0 mm WeatherDisplay:10.37 W/m2 FEW
22:59 -18.6 °C -19.2 °C 34669.3 hPa ENE 5.1 km/h 9 km/h 92% 0 mm WeatherDisplay:10.37 W/m2 FEW
23:04 -18.5 °C -19.1 °C 34682.8 hPa SSE 7.6 km/h 11.9 km/h 92% 0 mm WeatherDisplay:10.37 W/m2 FEW
23:09 -18.5 °C -19.1 °C 34669.3 hPa SSW 6.9 km/h 23.8 km/h 92% 0 mm WeatherDisplay:10.37 W/m2 FEW
23:14 -18.5 °C -19.1 °C 34669.3 hPa SSE 4.3 km/h 18.2 km/h 92% 0 mm WeatherDisplay:10.37 W/m2 FEW
23:19 -18.4 °C -19.1 °C 34659.1 hPa West 8 km/h 17.9 km/h 92% 0 mm WeatherDisplay:10.37 W/m2 FEW
23:24 -18.4 °C -19.1 °C 34659.1 hPa WSW 4.7 km/h 26.9 km/h 92% 0 mm WeatherDisplay:10.37 W/m2 FEW
23:29 -18.4 °C -19 °C 34669.3 hPa North 1.3 km/h 9 km/h 92% 0 mm WeatherDisplay:10.37 W/m2 FEW
23:34 -18.4 °C -18.9 °C 34669.3 hPa SW 5.5 km/h 9 km/h 93% 0 mm WeatherDisplay:10.37 W/m2 FEW
23:39 -18.4 °C -18.9 °C 34659.1 hPa SSW 3.9 km/h 9 km/h 93% 0 mm WeatherDisplay:10.37 W/m2 FEW
23:44 -18.3 °C -18.9 °C 34659.1 hPa WSW 4.7 km/h 23.8 km/h 92% 0 mm WeatherDisplay:10.37 W/m2 FEW
23:49 -18.3 °C -18.9 °C 34645.6 hPa West 8.2 km/h 17.9 km/h 92% 0 mm WeatherDisplay:10.37 W/m2 FEW
23:54 -18.3 °C -18.9 °C 34635.4 hPa ESE 2.6 km/h 9 km/h 92% 0 mm WeatherDisplay:10.37 W/m2 FEW
23:59 -18.3 °C -18.9 °C 34635.4 hPa WSW 9.7 km/h 11.9 km/h 92% 0 mm WeatherDisplay:10.37 W/m2 FEW
Tuulensuunkaari, Veikkola, Suomi
Compliments of Weather Underground - 2.75 mb